Flag for Canada Weather past 2 weeks in Red Deer, Alberta, Canada

Now
18 °F

Overcast.


Feels Like: 18 °F
Forecast: 13 / 22 °F
Wind: No wind

Location: Red Deer

Current Time: Dec 27, 2014 at 7:36:45 AM

Latest Report: Dec 27, 2014 at 7:00 AM


Visibility: 15 mi

Pressure: 30.08 "Hg

Humidity: 86%

Dew point: 14 °F

Location of Red DeerLocation

Historic Weather in Red Deer — Graph

°F

Red Deer temperature yesterday

Maximum temperature yesterday: 23 °F (at 8:00 PM)
Minimum temperature yesterday: 1 °F (at 7:00 AM)
Average temperature yesterday: 15 °F

Past Weeks' High & Low Weather Summary

 TemperatureHumidityPressure
High45 °F (Dec 12, 4:00 PM)100% (Dec 13, 8:45 AM)30.44 "Hg (Dec 13, 8:45 AM)
Low1 °F (Dec 26, 7:00 AM)53% (Dec 12, 4:00 PM)29.28 "Hg (Dec 21, 5:00 AM)
Average22 °F85%29.97 "Hg
* Reported Dec 12 6:00 AM — Dec 27 6:00 AM, Red Deer, Weather by CustomWeather, © 2014

Note: Actual official high and low records may vary slightly from our data, if they occured in-between our weather recording intervals... More about our weather records

Advertising

Red Deer weather history for previous 24 hours

 ConditionsComfort  
Time TempWeatherWind HumidityBarometerVisibility
6:00 AM
Dec 27
19 °FOvercast.8 mph79%30.07 "Hg15 mi
5:00 AM19 °FOvercast.6 mph79%30.08 "Hg15 mi
4:00 AM19 °FOvercast.5 mph79%30.09 "Hg15 mi
3:00 AM19 °FOvercast.5 mph79%30.11 "Hg15 mi
2:00 AM19 °FSnow flurries. Overcast.5 mph86%30.11 "Hg15 mi
1:00 AM19 °FSnow flurries. Overcast.3 mph79%30.12 "Hg15 mi
12:49 AM21 °FSnow flurries. Overcast.3 mph74%30.13 "Hg15 mi
12:00 AM21 °FOvercast.5 mph80%30.14 "Hg15 mi
11:00 PM
Dec 26
23 °FOvercast.3 mph74%30.14 "Hg15 mi
10:00 PM23 °FOvercast.5 mph68%30.15 "Hg15 mi
9:00 PM21 °FOvercast.3 mph80%30.18 "Hg15 mi
8:00 PM23 °FOvercast.9 mph68%30.19 "Hg15 mi
7:00 PM21 °FOvercast.8 mph74%30.19 "Hg15 mi
6:00 PM21 °FOvercast.7 mph74%30.19 "Hg15 mi
5:00 PM21 °FPassing clouds.6 mph68%30.18 "Hg15 mi
4:00 PM21 °FPartly sunny.7 mph74%30.18 "Hg15 mi
3:00 PM19 °FPartly sunny.8 mph73%30.18 "Hg15 mi
2:00 PM19 °FPartly sunny.6 mph73%30.18 "Hg15 mi
1:00 PM18 °FPartly sunny.8 mph79%30.19 "Hg15 mi
12:00 PM16 °FPartly sunny.6 mph79%30.21 "Hg15 mi
11:00 AM12 °FBroken clouds.6 mph85%30.23 "Hg15 mi
10:00 AM9 °FPassing clouds.6 mph85%30.24 "Hg15 mi
9:00 AM3 °FSunny.6 mph92%30.24 "Hg15 mi
8:00 AM1 °FClear.5 mph85%30.25 "Hg15 mi
7:00 AM1 °FClear.5 mph85%30.25 "Hg15 mi
Weather by CustomWeather, © 2014

See weather overviewHow to use our weather pages